Newberry, MI

7:14 AM EDT on July 23, 2017 (GMT -0400)
Luce County

Weather History for KERY - January, 2014

Change the Weather History Date:

Thursday, January 30, 2014

  Actual Average Record
Temperature  
Mean Temperature 20 °F -  
Max Temperature 29 °F 24 °F 38 °F (1988)
Min Temperature 12 °F 8 °F -18 °F (1951)
Degree Days  
Heating Degree Days 44    
Moisture  
Dew Point 19 °F    
Average Humidity 81    
Maximum Humidity 95    
Minimum Humidity 71    
Precipitation  
Precipitation 0.01 in - - ()
Sea Level Pressure  
Sea Level Pressure 29.58 in    
Wind  
Wind Speed 17 mph (SW)    
Max Wind Speed 26 mph    
Max Gust Speed 38 mph    
Visibility 5 miles    
Events Snow    
Averages and records for this station are not official NWS values.
T = Trace of Precipitation, MM = Missing Value Source: NWS Daily Summary

Daily Weather History Graph

Daily Weather History Graph

Search for Another Location

Airport or City:

Trip Planner

Search our weather history database for the weather conditions in past years. The results will help you decide how hot, cold, wet, or windy it might be!

Date:

Astronomy

Jan. 30, 2014 Rise Set
Actual Time 8:07 AM EST 5:43 PM EST
Civil Twilight 7:35 AM EST 6:15 PM EST
Nautical Twilight 6:58 AM EST 6:52 PM EST
Astronomical Twilight 6:23 AM EST 7:27 PM EST
Moon 7:30 AM EST (1/30) 5:58 PM EST (1/30)
Length of Visible Light 10h 40m
Length of Day
9h 36m
Waning Crescent, 0% of the Moon is Illuminated
Jan 30
Waning Crescent
Jan 30
New
Feb 6
First Quarter
Feb 14
Full
Feb 22
Last Quarter

Hourly Weather History & Observations

Time (EST) Temp. Windchill Dew Point Humidity Pressure Visibility Wind Dir Wind Speed Gust Speed Precip Events Conditions
12:15 AM 21.0 °F 5.7 °F 14.0 °F 74% 29.74 in 10.0 mi SSW 19.6 mph 26.5 mph N/A   Scattered Clouds
12:35 AM 21.9 °F 6.9 °F 15.3 °F 76% 29.73 in 10.0 mi SSW 19.6 mph 25.3 mph N/A   Mostly Cloudy
12:55 AM 22.8 °F 7.7 °F 16.9 °F 78% 29.72 in 4.0 mi SSW 20.7 mph 31.1 mph N/A   Haze
1:15 AM 23.7 °F 9.3 °F 17.8 °F 78% 29.70 in 5.0 mi South 19.6 mph 29.9 mph N/A   Haze
1:35 AM 24.4 °F 11.0 °F 17.8 °F 76% 29.69 in 7.0 mi South 17.3 mph 27.6 mph N/A   Overcast
1:55 AM 25.2 °F 10.4 °F 18.5 °F 76% 29.67 in 5.0 mi SSW 21.9 mph 28.8 mph N/A   Haze
2:15 AM 25.7 °F 10.8 °F 18.7 °F 75% 29.67 in 5.0 mi SSW 23.0 mph 31.1 mph N/A   Haze
2:35 AM 25.7 °F 10.8 °F 18.9 °F 75% 29.66 in 5.0 mi SSW 23.0 mph 29.9 mph N/A   Haze
2:55 AM 26.4 °F 12.5 °F 19.6 °F 75% 29.65 in 4.0 mi SSW 20.7 mph 32.2 mph N/A   Haze
3:15 AM 27.1 °F 12.4 °F 20.1 °F 75% 29.65 in 5.0 mi SSW 24.2 mph 34.5 mph N/A   Haze
3:35 AM 27.5 °F 14.2 °F 20.1 °F 74% 29.64 in 5.0 mi SSW 19.6 mph 38.0 mph N/A   Haze
3:55 AM 27.5 °F 12.9 °F 20.1 °F 74% 29.63 in 5.0 mi SSW 24.2 mph 33.4 mph N/A Snow Light Snow
4:15 AM 27.5 °F 13.2 °F 19.8 °F 73% 29.62 in 5.0 mi SSW 23.0 mph 28.8 mph N/A   Haze
4:35 AM 27.5 °F 12.9 °F 19.8 °F 73% 29.62 in 5.0 mi SSW 24.2 mph 32.2 mph N/A   Haze
4:55 AM 27.5 °F 12.9 °F 20.1 °F 74% 29.62 in 4.0 mi SSW 24.2 mph 34.5 mph N/A   Haze
5:15 AM 27.5 °F 12.6 °F 20.1 °F 74% 29.61 in 4.0 mi SSW 25.3 mph 29.9 mph N/A Snow Light Snow
5:35 AM 27.5 °F 14.2 °F 20.7 °F 75% 29.61 in 7.0 mi SSW 19.6 mph 27.6 mph N/A Snow Light Snow
5:55 AM 27.7 °F 14.5 °F 20.1 °F 73% 29.62 in 7.0 mi SSW 19.6 mph 29.9 mph N/A   Overcast
6:14 AM 27.5 °F 13.9 °F 20.3 °F 74% 29.61 in 7.0 mi SSW 20.7 mph 26.5 mph N/A   Overcast
6:35 AM 27.9 °F 14.0 °F 20.3 °F 73% 29.60 in 7.0 mi SSW 21.9 mph 26.5 mph N/A Snow Light Snow
6:55 AM 27.5 °F 15.0 °F 21.2 °F 77% 29.59 in 7.0 mi SSW 17.3 mph 20.7 mph N/A Snow Light Snow
7:15 AM 28.0 °F 15.7 °F 20.3 °F 73% 29.59 in 10.0 mi SSW 17.3 mph 25.3 mph N/A   Overcast
7:35 AM 28.0 °F 14.9 °F 20.8 °F 74% 29.60 in 10.0 mi SSW 19.6 mph 24.2 mph N/A   Overcast
7:55 AM 28.2 °F 16.8 °F 21.0 °F 74% 29.60 in 10.0 mi SSW 15.0 mph 24.2 mph N/A   Overcast
8:15 AM 27.7 °F 14.8 °F 22.1 °F 80% 29.60 in 3.0 mi SSW 18.4 mph 24.2 mph N/A Snow Light Snow
8:35 AM 27.9 °F 14.0 °F 22.1 °F 79% 29.60 in 4.0 mi SSW 21.9 mph - N/A Snow Light Snow
8:55 AM 28.2 °F 17.2 °F 21.6 °F 76% 29.60 in 10.0 mi SSW 13.8 mph 19.6 mph N/A   Overcast
9:15 AM 28.4 °F 16.6 °F 21.0 °F 74% 29.60 in 10.0 mi SSW 16.1 mph 25.3 mph N/A   Overcast
9:35 AM 28.4 °F 16.2 °F 21.0 °F 74% 29.59 in 10.0 mi SSW 17.3 mph 23.0 mph N/A   Overcast
9:55 AM 28.9 °F 16.1 °F 20.8 °F 72% 29.59 in 10.0 mi SW 19.6 mph 24.2 mph N/A   Overcast
10:15 AM 29.1 °F 16.0 °F 20.8 °F 71% 29.59 in 10.0 mi SSW 20.7 mph 28.8 mph N/A   Overcast
10:35 AM 29.1 °F 14.5 °F 21.4 °F 73% 29.59 in 4.0 mi SSW 26.5 mph 31.1 mph N/A   Haze
10:55 AM 28.8 °F 15.5 °F 21.4 °F 74% 29.58 in 5.0 mi SW 20.7 mph 29.9 mph N/A   Haze
11:15 AM 28.4 °F 13.8 °F 21.9 °F 77% 29.57 in 2.0 mi SSW 25.3 mph 34.5 mph N/A Snow Light Snow
11:36 AM 28.0 °F 13.9 °F 22.6 °F 80% 29.56 in 2.0 mi SSW 23.0 mph - N/A Snow Light Snow
11:55 AM 27.9 °F 14.4 °F 23.0 °F 82% 29.56 in 2.0 mi SSW 20.7 mph 27.6 mph N/A Snow Light Snow
12:15 PM 27.5 °F 15.4 °F 23.4 °F 84% 29.56 in 2.5 mi SW 16.1 mph 25.3 mph N/A Snow Light Snow
12:35 PM 26.4 °F 15.5 °F 23.5 °F 89% 29.55 in 1.2 mi WSW 12.7 mph - N/A Snow Light Snow
12:55 PM 26.1 °F 14.5 °F 22.8 °F 88% 29.54 in 2.5 mi SW 13.8 mph - N/A Snow Light Snow
1:15 PM 26.1 °F 15.6 °F 22.1 °F 85% 29.53 in 7.0 mi SW 11.5 mph 17.3 mph N/A   Overcast
1:35 PM 26.1 °F 15.0 °F 22.1 °F 85% 29.52 in 5.0 mi SW 12.7 mph 18.4 mph N/A Snow Light Snow
1:55 PM 26.1 °F 16.2 °F 22.5 °F 86% 29.52 in 4.0 mi WSW 10.4 mph - N/A Snow Light Snow
2:15 PM 25.7 °F 15.7 °F 22.1 °F 86% 29.50 in 3.0 mi WSW 10.4 mph - N/A Snow Light Snow
2:35 PM 25.2 °F 17.3 °F 22.1 °F 88% 29.50 in 1.8 mi SW 6.9 mph - N/A Snow Light Snow
2:55 PM 24.8 °F 20.5 °F 22.5 °F 91% 29.48 in 1.2 mi SW 3.5 mph - N/A Snow Light Snow
3:15 PM 24.8 °F 20.5 °F 22.3 °F 90% 29.47 in 1.0 mi West 3.5 mph - N/A Snow Light Snow
3:35 PM 24.4 °F 17.5 °F 22.1 °F 91% 29.46 in 0.8 mi WSW 5.8 mph - N/A Snow Light Snow
3:55 PM 23.9 °F 15.8 °F 21.7 °F 91% 29.45 in 1.0 mi SW 6.9 mph - N/A Snow Light Snow
4:15 PM 23.7 °F 19.3 °F 21.9 °F 93% 29.45 in 0.8 mi WSW 3.5 mph - N/A Snow Light Snow
4:35 PM 23.7 °F 19.3 °F 21.7 °F 92% 29.46 in 0.8 mi SW 3.5 mph - N/A Snow Snow
4:55 PM 23.5 °F 16.4 °F 21.9 °F 94% 29.47 in 0.2 mi SSW 5.8 mph - N/A Snow Snow
5:15 PM 23.0 °F 14.7 °F 21.7 °F 95% 29.47 in 0.2 mi SW 6.9 mph - N/A Snow Snow
5:35 PM 23.0 °F 14.7 °F 21.2 °F 93% 29.47 in 0.8 mi WSW 6.9 mph - N/A Snow Light Snow
5:55 PM 23.0 °F 13.9 °F 21.2 °F 93% 29.47 in 0.8 mi West 8.1 mph - N/A Snow Light Snow
6:15 PM 23.0 °F 11.7 °F 21.0 °F 92% 29.47 in 1.5 mi West 11.5 mph - 0.01 in Snow Light Snow
6:35 PM 22.8 °F 12.9 °F 21.0 °F 93% 29.49 in 2.0 mi West 9.2 mph - 0.01 in Snow Light Snow
6:55 PM 21.9 °F 9.8 °F 19.8 °F 91% 29.50 in 1.2 mi NW 12.7 mph 17.3 mph 0.01 in Snow Light Snow
7:15 PM 20.7 °F 9.5 °F 17.2 °F 87% 29.52 in 5.0 mi NW 10.4 mph 18.4 mph N/A Snow Light Snow
7:35 PM 20.1 °F 7.5 °F 16.7 °F 87% 29.53 in 10.0 mi WNW 12.7 mph 20.7 mph N/A   Overcast
7:54 PM 18.5 °F 6.1 °F 14.0 °F 83% 29.54 in 10.0 mi WNW 11.5 mph 21.9 mph N/A   Overcast
8:15 PM 17.6 °F 6.4 °F 13.5 °F 84% 29.56 in 10.0 mi WNW 9.2 mph - N/A   Overcast
8:35 PM 17.2 °F 4.5 °F 12.6 °F 82% 29.57 in 5.0 mi WNW 11.5 mph 19.6 mph N/A Snow Light Snow
8:55 PM 16.3 °F 3.4 °F 11.8 °F 82% 29.59 in 7.0 mi WNW 11.5 mph 18.4 mph N/A Snow Light Snow
9:15 PM 15.8 °F 3.4 °F 12.2 °F 86% 29.60 in 3.0 mi WNW 10.4 mph - N/A Snow Light Snow
9:35 PM 15.6 °F 3.2 °F 11.5 °F 84% 29.61 in 4.0 mi West 10.4 mph 16.1 mph N/A Snow Light Snow
9:55 PM 14.7 °F -0.5 °F 9.5 °F 80% 29.63 in 7.0 mi NW 15.0 mph 21.9 mph N/A Snow Light Snow
10:15 PM 14.5 °F 3.6 °F 9.3 °F 80% 29.64 in 7.0 mi WNW 8.1 mph 18.4 mph N/A Snow Light Snow
10:35 PM 14.0 °F 2.0 °F 10.2 °F 85% 29.66 in 2.5 mi WNW 9.2 mph - N/A Snow Light Snow
10:55 PM 13.6 °F 1.6 °F 8.6 °F 80% 29.67 in 7.0 mi West 9.2 mph - N/A Snow Light Snow
11:14 PM 13.1 °F -0.7 °F 8.1 °F 80% 29.67 in 10.0 mi West 11.5 mph 16.1 mph N/A Snow Light Snow
11:35 PM 12.6 °F -1.4 °F 7.7 °F 81% 29.69 in 10.0 mi West 11.5 mph 17.3 mph N/A Snow Light Snow
11:55 PM 12.2 °F -1.0 °F 6.8 °F 79% 29.70 in 10.0 mi WNW 10.4 mph - N/A   Overcast